• In Hungary
  • List of Countries
  • For 7 days
  • Water Temperature
  • Satellite Maps
  • Weather Map
  • News
  • Weather Widgets
  • user-avatar
    Login

    Hourly Weather Rochester

    Today, 22 January, Monday

    Time Temperature Precipitation Wind Pressure Humidity
    00:00 +8°C° 0 mm 5 mps 745 mmHg 93%
    01:00 +7°C° 0 mm 5 mps 746 mmHg 93%
    02:00 +7°C° 0 mm 5 mps 746 mmHg 93%
    03:00 +6°C° 0 mm 5 mps 746 mmHg 93%
    04:00 +6°C° 0 mm 5 mps 746 mmHg 93%
    05:00 +6°C° 0 mm 5 mps 746 mmHg 92%
    06:00 +5°C° 0 mm 5 mps 747 mmHg 92%
    07:00 +5°C° 0 mm 5 mps 747 mmHg 91%
    08:00 +5°C° 0 mm 5 mps 748 mmHg 90%
    09:00 +5°C° 0 mm 5 mps 748 mmHg 89%
    10:00 +6°C° 0 mm 5 mps 749 mmHg 85%
    11:00 +7°C° 0 mm 5 mps 749 mmHg 81%
    12:00 +7°C° 0 mm 6 mps 750 mmHg 76%
    13:00 +8°C° 0 mm 5 mps 750 mmHg 76%
    14:00 +8°C° 0 mm 5 mps 751 mmHg 76%
    15:00 +8°C° 0 mm 5 mps 751 mmHg 75%
    16:00 +7°C° 0 mm 4 mps 752 mmHg 79%
    17:00 +6°C° 0 mm 4 mps 752 mmHg 83%
    18:00 +5°C° 0 mm 4 mps 753 mmHg 86%
    19:00 +5°C° 0 mm 4 mps 753 mmHg 87%
    20:00 +4°C° 0 mm 4 mps 754 mmHg 88%
    21:00 +4°C° 0 mm 3 mps 754 mmHg 89%
    22:00 +4°C° 0 mm 3 mps 755 mmHg 90%
    23:00 +4°C° 0 mm 3 mps 755 mmHg 91%

    Tomorrow, 23 January, Tuesday

    Time Temperature Precipitation Wind Pressure Humidity
    00:00 +3°C° 0 mm 3 mps 755 mmHg 91%
    01:00 +3°C° 0 mm 3 mps 755 mmHg 91%
    02:00 +4°C° 0 mm 3 mps 755 mmHg 91%
    03:00 +4°C° 0 mm 4 mps 755 mmHg 92%
    04:00 +4°C° 0.2 mm 4 mps 755 mmHg 92%
    05:00 +5°C° 0.2 mm 5 mps 754 mmHg 93%
    06:00 +4°C° 0.2 mm 6 mps 754 mmHg 94%
    07:00 +5°C° 0.3 mm 7 mps 753 mmHg 93%
    08:00 +5°C° 0.3 mm 7 mps 753 mmHg 92%
    09:00 +6°C° 0.3 mm 8 mps 752 mmHg 91%
    10:00 +7°C° 0.5 mm 8 mps 752 mmHg 91%
    11:00 +9°C° 0.5 mm 8 mps 752 mmHg 92%
    12:00 +10°C° 0.5 mm 8 mps 752 mmHg 92%
    13:00 +10°C° 0 mm 8 mps 752 mmHg 91%
    14:00 +10°C° 0 mm 8 mps 752 mmHg 90%
    15:00 +11°C° 0 mm 7 mps 751 mmHg 88%
    16:00 +10°C° 0 mm 7 mps 751 mmHg 89%
    17:00 +10°C° 0 mm 7 mps 752 mmHg 89%
    18:00 +10°C° 0 mm 8 mps 752 mmHg 89%
    19:00 +10°C° 0 mm 8 mps 752 mmHg 89%
    20:00 +10°C° 0 mm 8 mps 752 mmHg 90%
    21:00 +10°C° 0 mm 8 mps 752 mmHg 90%
    22:00 +10°C° 0 mm 8 mps 752 mmHg 90%
    23:00 +10°C° 0 mm 8 mps 751 mmHg 90%

    Day after tomorrow, 24 January, Wednesday

    Time Temperature Precipitation Wind Pressure Humidity
    00:00 +10°C° 0 mm 8 mps 751 mmHg 90%
    01:00 +10°C° 0 mm 8 mps 751 mmHg 89%
    02:00 +11°C° 0 mm 9 mps 750 mmHg 88%
    03:00 +11°C° 0 mm 9 mps 750 mmHg 87%
    04:00 +11°C° 0.1 mm 10 mps 749 mmHg 86%
    05:00 +11°C° 0.1 mm 10 mps 748 mmHg 86%
    06:00 +11°C° 0.1 mm 11 mps 747 mmHg 85%
    07:00 +10°C° 0.1 mm 12 mps 747 mmHg 84%
    08:00 +10°C° 0.1 mm 13 mps 746 mmHg 83%
    09:00 +12°C° 0.1 mm 13 mps 746 mmHg 82%
    10:00 +10°C° 0.7 mm 13 mps 746 mmHg 82%
    11:00 +10°C° 0.7 mm 13 mps 746 mmHg 83%
    12:00 +10°C° 0.7 mm 13 mps 746 mmHg 84%
    13:00 +8°C° 1.6 mm 11 mps 746 mmHg 82%
    14:00 +7°C° 1.6 mm 8 mps 746 mmHg 80%
    15:00 +7°C° 1.6 mm 6 mps 746 mmHg 78%
    16:00 +7°C° 0.6 mm 6 mps 746 mmHg 79%
    17:00 +6°C° 0.6 mm 7 mps 746 mmHg 80%
    18:00 +6°C° 0.6 mm 7 mps 746 mmHg 81%
    19:00 +5°C° 0.1 mm 6 mps 746 mmHg 80%
    20:00 +5°C° 0.1 mm 6 mps 747 mmHg 78%
    21:00 +5°C° 0.1 mm 6 mps 747 mmHg 76%
    22:00 +5°C° 0 mm 6 mps 747 mmHg 77%
    23:00 +5°C° 0 mm 6 mps 747 mmHg 78%

    25 January, Thursday

    Time Temperature Precipitation Wind Pressure Humidity
    00:00 +5°C° 0 mm 6 mps 747 mmHg 79%
    01:00 +5°C° 0 mm 5 mps 746 mmHg 81%
    02:00 +5°C° 0 mm 5 mps 746 mmHg 82%
    03:00 +5°C° 0 mm 5 mps 746 mmHg 84%
    04:00 +5°C° 0.3 mm 5 mps 745 mmHg 85%
    05:00 +5°C° 0.3 mm 5 mps 745 mmHg 86%
    06:00 +5°C° 0.3 mm 5 mps 745 mmHg 88%
    07:00 +5°C° 1.3 mm 5 mps 745 mmHg 85%
    08:00 +5°C° 1.3 mm 5 mps 745 mmHg 83%
    09:00 +5°C° 1.3 mm 5 mps 745 mmHg 80%
    10:00 +5°C° 0 mm 6 mps 745 mmHg 75%
    11:00 +5°C° 0 mm 7 mps 745 mmHg 69%
    12:00 +6°C° 0 mm 8 mps 745 mmHg 63%
    13:00 +6°C° 0 mm 8 mps 745 mmHg 64%
    14:00 +6°C° 0 mm 8 mps 745 mmHg 65%
    15:00 +6°C° 0 mm 8 mps 745 mmHg 65%
    16:00 +5°C° 0 mm 7 mps 745 mmHg 68%
    17:00 +5°C° 0 mm 7 mps 746 mmHg 72%
    18:00 +4°C° 0 mm 7 mps 746 mmHg 75%
    19:00 +4°C° 0 mm 6 mps 747 mmHg 76%
    20:00 +3°C° 0 mm 6 mps 747 mmHg 78%
    21:00 +3°C° 0 mm 5 mps 748 mmHg 79%
    22:00 +3°C° 0 mm 5 mps 748 mmHg 80%
    23:00 +2°C° 0 mm 5 mps 749 mmHg 80%

    26 January, Friday

    Time Temperature Precipitation Wind Pressure Humidity
    00:00 +2°C° 0 mm 5 mps 749 mmHg 80%
    01:00 +2°C° 0 mm 5 mps 749 mmHg 81%
    02:00 +2°C° 0 mm 5 mps 749 mmHg 81%
    03:00 +1°C° 0 mm 5 mps 749 mmHg 82%
    04:00 +1°C° 0 mm 5 mps 750 mmHg 83%
    05:00 +1°C° 0 mm 5 mps 750 mmHg 84%
    06:00 +1°C° 0 mm 5 mps 751 mmHg 86%
    07:00 +1°C° 0 mm 5 mps 752 mmHg 85%
    08:00 +1°C° 0 mm 5 mps 753 mmHg 85%
    09:00 +1°C° 0 mm 5 mps 753 mmHg 85%
    10:00 +2°C° 0 mm 5 mps 754 mmHg 81%
    11:00 +3°C° 0 mm 5 mps 755 mmHg 78%
    12:00 +5°C° 0 mm 5 mps 755 mmHg 74%
    13:00 +5°C° 0 mm 5 mps 756 mmHg 73%
    14:00 +6°C° 0 mm 4 mps 756 mmHg 73%
    15:00 +6°C° 0 mm 4 mps 757 mmHg 72%
    16:00 +5°C° 0 mm 4 mps 757 mmHg 76%
    17:00 +4°C° 0 mm 4 mps 758 mmHg 80%
    18:00 +3°C° 0 mm 4 mps 759 mmHg 84%
    19:00 +3°C° 0 mm 3 mps 759 mmHg 85%
    20:00 +2°C° 0 mm 3 mps 760 mmHg 86%
    21:00 +2°C° 0 mm 3 mps 761 mmHg 87%
    22:00 +3°C° 0 mm 2 mps 761 mmHg 88%
    23:00 +3°C° 0 mm 2 mps 762 mmHg 88%

    27 January, Saturday

    Time Temperature Precipitation Wind Pressure Humidity
    00:00 +2°C° 0 mm 2 mps 762 mmHg 89%
    01:00 +2°C° 0 mm 2 mps 762 mmHg 90%
    02:00 +2°C° 0 mm 2 mps 762 mmHg 90%
    03:00 +2°C° 0 mm 2 mps 763 mmHg 91%
    04:00 +2°C° 0 mm 2 mps 763 mmHg 91%
    05:00 +2°C° 0 mm 1 mps 763 mmHg 91%
    06:00 +2°C° 0 mm 1 mps 764 mmHg 92%
    07:00 +3°C° 0 mm 1 mps 764 mmHg 91%
    08:00 +3°C° 0 mm 1 mps 764 mmHg 91%
    09:00 +3°C° 0 mm 1 mps 765 mmHg 90%
    10:00 +4°C° 0 mm 2 mps 765 mmHg 85%
    11:00 +5°C° 0 mm 2 mps 765 mmHg 81%
    12:00 +5°C° 0 mm 3 mps 766 mmHg 76%
    13:00 +7°C° 0 mm 3 mps 766 mmHg 75%
    14:00 +6°C° 0 mm 4 mps 765 mmHg 75%
    15:00 +6°C° 0 mm 4 mps 765 mmHg 74%
    16:00 +6°C° 0 mm 4 mps 766 mmHg 77%
    17:00 +5°C° 0 mm 4 mps 766 mmHg 81%
    18:00 +5°C° 0 mm 4 mps 766 mmHg 84%
    19:00 +5°C° 0 mm 5 mps 766 mmHg 86%
    20:00 +5°C° 0 mm 5 mps 766 mmHg 87%
    21:00 +6°C° 0 mm 5 mps 766 mmHg 89%
    22:00 +5°C° 0 mm 6 mps 766 mmHg 91%
    23:00 +5°C° 0 mm 6 mps 767 mmHg 92%
    Show more